Battle Creek, Michigan, United States (49014)
Lat: 42.32N, Lon: 85.18W
Wx Zone: MIZ073
Local Info
Past Weather Observations for Today

NOTE: This archive is for the closest National Weather Service station to Battle Creek. Information may differ from the station used for current weather conditions.

Click here for Long-term Archive

Time Weather Temperature Dewpoint Humidity Pressure Winds Precip Visibility
20:53
Overcast
Light Rain
36°F / 2°C 32°F / 0°C 87% 29.8 in
(1009 mb)
E 9.2 mph
(E 15 kph)
0.01 in
(0.25 mm)
5SM
19:53
Overcast
Unknown Precip
37°F / 3°C 32°F / 0°C 81% 29.83 in
(1010 mb)
ESE 6.9 mph
(ESE 11 kph)
0.00 in
(0.00 mm)
8SM
18:53
Overcast
37°F / 3°C 30°F / -1°C 75% 29.83 in
(1010 mb)
ESE 10.4 mph
(ESE 17 kph)
- 8SM
17:53
Overcast
37°F / 3°C 30°F / -1°C 75% 29.83 in
(1010 mb)
ESE 10.4 mph
(ESE 17 kph)
0.00 in
(0.00 mm)
8SM
16:53
Overcast
Light Rain
37°F / 3°C 30°F / -1°C 75% 29.83 in
(1010 mb)
E 10.4 mph
(E 17 kph)
0.00 in
(0.00 mm)
5SM
15:53
Overcast
39°F / 4°C 30°F / -1°C 70% 29.86 in
(1011 mb)
ESE 9.2 mph
(ESE 15 kph)
0.00 in
(0.00 mm)
10SM
14:53
Overcast
39°F / 4°C 28°F / -2°C 65% 29.89 in
(1012 mb)
SE 11.5 mph
(SE 19 kph)
- 10SM
13:53
Overcast
37°F / 3°C 28°F / -2°C 70% 29.89 in
(1012 mb)
ESE 9.2 mph
(ESE 15 kph)
- 9SM
12:53
Overcast
37°F / 3°C 27°F / -3°C 65% 29.92 in
(1013 mb)
SE 9.2 mph
(SE 15 kph)
- 9SM
11:53
Overcast
36°F / 2°C 27°F / -3°C 70% 29.95 in
(1014 mb)
E 6.9 mph
(E 11 kph)
- 7SM
10:53
Overcast
Hazy
32°F / 0°C 25°F / -4°C 75% 30.01 in
(1016 mb)
E 9.2 mph
(E 15 kph)
- 6SM
09:53
Partly Cloudy
Hazy
30°F / -1°C 23°F / -5°C 75% 30.01 in
(1016 mb)
SE 6.9 mph
(SE 11 kph)
- 5SM
08:53
Clear
Hazy
27°F / -3°C 21°F / -6°C 80% 30.04 in
(1017 mb)
E 5.8 mph
(E 9 kph)
- 4SM
07:53
Clear
Hazy
27°F / -3°C 21°F / -6°C 80% 30.04 in
(1017 mb)
SE 4.6 mph
(SE 7 kph)
- 6SM
06:53
Clear
Hazy
27°F / -3°C 21°F / -6°C 80% 30.04 in
(1017 mb)
ESE 6.9 mph
(ESE 11 kph)
- 6SM
05:53
Clear
28°F / -2°C 21°F / -6°C 74% 30.04 in
(1017 mb)
ESE 8.1 mph
(ESE 13 kph)
- 7SM
04:53
Clear
28°F / -2°C 21°F / -6°C 74% 30.06 in
(1018 mb)
SE 9.2 mph
(SE 15 kph)
- 7SM
03:53
Clear
28°F / -2°C 21°F / -6°C 74% 30.06 in
(1018 mb)
SE 6.9 mph
(SE 11 kph)
- 7SM
02:53
Clear
28°F / -2°C 21°F / -6°C 74% 30.09 in
(1019 mb)
SE 8.1 mph
(SE 13 kph)
- 7SM
01:53
Clear
28°F / -2°C 23°F / -5°C 80% 30.09 in
(1019 mb)
SE 8.1 mph
(SE 13 kph)
- 7SM
00:53
Clear
Hazy
28°F / -2°C 23°F / -5°C 80% 30.09 in
(1019 mb)
SE 8.1 mph
(SE 13 kph)
- 6SM
Time Weather Temperature Dewpoint Humidity Pressure Winds Precip Visibility


Weather for websites

WeatherForYou.com, LLC is not responsible for any damages or problems caused by this service. Current weather conditions are obtained from the closest station including government and personal stations which may have varying degrees of accuracy. Weather forecasts are derived from the NOAA NDFD. Like all things, this site belongs to Jesus Christ... He just trusts me to maintain it. If you have any questions or comments email webmaster@weatherforyou.com

Copyright © 2014, WeatherForYou.com LLC. All rights reserved.